Jasikovac, Bosnia and Herzegovina

9:34 AM CEST on June 22, 2018 (GMT +0200)
Jasikovac

Weather History for 14474 - January, 2018

Change the Weather History Date:

Saturday, January 13, 2018

  Actual Average Record
Temperature  
Mean Temperature 52 °F -  
Max Temperature 57 °F - - ()
Min Temperature 48 °F - - ()
Degree Days  
Heating Degree Days 12    
Growing Degree Days 2 (Base 50)    
Moisture  
Dew Point 33 °F    
Average Humidity 49    
Maximum Humidity 76    
Minimum Humidity 25    
Precipitation  
Precipitation 0.00 in - - ()
Sea Level Pressure  
Sea Level Pressure 30.01 in    
Wind  
Wind Speed 13 mph ()    
Max Wind Speed 21 mph    
Max Gust Speed -    
Visibility 8.9 miles    
Events      
T = Trace of Precipitation, MM = Missing Value Source: Averaged Metar Reports

Daily Weather History Graph

Daily Weather History Graph

Search for Another Location

Airport or City:

Astronomy

Jan. 13, 2018 Rise Set
Actual Time 7:15 AM CET 4:36 PM CET
Civil Twilight 6:43 AM CET 5:07 PM CET
Nautical Twilight 6:08 AM CET 5:42 PM CET
Astronomical Twilight 5:34 AM CET 6:16 PM CET
Moon 3:59 AM CET (1/13) 2:01 PM CET (1/13)
Length of Visible Light 10h 24m
Length of Day
9h 21m
Waning Crescent, 11% of the Moon is Illuminated
Jan 13
Waning Crescent
Jan 17
New
Jan 24
First Quarter
Jan 31
Full
Feb 7
Last Quarter

Hourly Weather History & Observations

Time (CET) Temp. Dew Point Humidity Pressure Visibility Wind Dir Wind Speed Gust Speed Precip Events Conditions
12:00 AM 50.0 °F 28.4 °F 43% 30.01 in - NNE 20.7 mph - N/A   Clear
12:30 AM 50.0 °F 30.2 °F 47% 29.98 in - NNE 19.6 mph - N/A   Clear
1:00 AM 49 °F 29 °F 34% 30.00 in 19 mi NNE 20.1 mph - -  
1:00 AM 50.0 °F 30.2 °F 47% 29.98 in - NNE 18.4 mph - N/A   Clear
1:30 AM 50.0 °F 30.2 °F 47% 29.98 in - NNE 19.6 mph - N/A   Clear
2:00 AM 50.0 °F 30.2 °F 47% 29.98 in - NNE 19.6 mph - N/A   Clear
2:30 AM 50.0 °F 30.2 °F 47% 29.98 in - NNE 19.6 mph - N/A   Clear
3:00 AM 50.0 °F 30.2 °F 47% 29.98 in - NNE 18.4 mph - N/A   Clear
3:30 AM 50.0 °F 30.2 °F 47% 29.98 in - NNE 18.4 mph - N/A   Clear
4:00 AM 49 °F 30 °F 35% 29.99 in 31 mi NNE 17.9 mph - -  
4:00 AM 48.2 °F 30.2 °F 50% 29.98 in - NNE 19.6 mph - N/A   Clear
4:30 AM 48.2 °F 30.2 °F 50% 29.98 in - NNE 20.7 mph - N/A   Clear
5:00 AM 48.2 °F 30.2 °F 50% 29.98 in - NNE 18.4 mph - N/A   Clear
5:30 AM 48.2 °F 30.2 °F 50% 29.98 in - NNE 19.6 mph - N/A   Clear
6:00 AM 48.2 °F 30.2 °F 50% 29.98 in - North 18.4 mph - N/A   Clear
6:30 AM 48.2 °F 30.2 °F 50% 29.98 in - NNE 17.3 mph - N/A   Clear
7:00 AM 48 °F 30 °F 37% 29.99 in 31 mi NNE 17.9 mph - -   Scattered Clouds
7:00 AM 48.2 °F 30.2 °F 50% 29.98 in - NNE 17.3 mph - N/A   Clear
7:30 AM 48.2 °F 30.2 °F 50% 29.98 in - NNE 19.6 mph - N/A   Clear
8:00 AM 50.0 °F 30.2 °F 47% 29.98 in - NNE 18.4 mph - N/A   Clear
8:30 AM 51.8 °F 30.2 °F 44% 29.98 in - NNE 17.3 mph - N/A   Clear
9:00 AM 51.8 °F 30.2 °F 44% 29.98 in - NNE 15.0 mph - N/A   Clear
9:30 AM 53.6 °F 32.0 °F 44% 30.01 in - NNE 12.7 mph - N/A   Clear
10:00 AM 55 °F 32 °F 30% 30.01 in 19 mi NNE 8.9 mph - -   Mostly Cloudy
10:00 AM 55.4 °F 32.0 °F 41% 30.01 in - NNE 9.2 mph - N/A   Clear
10:30 AM 55.4 °F 32.0 °F 41% 30.01 in - North 10.4 mph - N/A   Clear
11:00 AM 57.2 °F 32.0 °F 38% 30.01 in - North 6.9 mph - N/A   Clear
11:30 AM 55.4 °F 33.8 °F 44% 29.98 in - SSW 6.9 mph - N/A   Clear
12:00 PM 57.2 °F 32.0 °F 38% 29.98 in - South 8.1 mph - N/A   Clear
12:30 PM 57.2 °F 30.2 °F 36% 29.98 in - South 8.1 mph - N/A   Clear
1:00 PM 57 °F 31 °F 25% 29.99 in 19 mi SW 6.7 mph - -   Scattered Clouds
1:00 PM 57.2 °F 32.0 °F 38% 29.98 in - SW 6.9 mph - N/A   Clear
1:30 PM 57.2 °F 32.0 °F 38% 29.98 in - SSW 5.8 mph - N/A   Clear
2:00 PM 57.2 °F 37.4 °F 48% 29.98 in 6.2 mi SSW 6.9 mph - N/A   Partly Cloudy
2:30 PM 55.4 °F 41.0 °F 58% 29.98 in 6.2 mi SW 6.9 mph - N/A   Partly Cloudy
3:00 PM 55.4 °F 39.2 °F 54% 29.98 in 6.2 mi WSW 6.9 mph - N/A   Partly Cloudy
3:30 PM 55.4 °F 39.2 °F 54% 30.01 in 6.2 mi SW 4.6 mph - N/A   Partly Cloudy
4:00 PM 55 °F 39 °F 44% 30.01 in 31 mi SSW 4.5 mph - -   Scattered Clouds
4:00 PM 55.4 °F 39.2 °F 54% 30.01 in 6.2 mi SSW 4.6 mph - N/A   Partly Cloudy
4:30 PM 53.6 °F 39.2 °F 58% 30.01 in 6.2 mi South 3.5 mph - N/A   Scattered Clouds
5:00 PM 51.8 °F 39.2 °F 62% 30.01 in 6.2 mi ESE 3.5 mph - N/A   Scattered Clouds
5:30 PM 50.0 °F 39.2 °F 66% 30.01 in 6.2 mi ENE 5.8 mph - N/A   Scattered Clouds
6:00 PM 50.0 °F 39.2 °F 66% 30.04 in 6.2 mi East 4.6 mph - N/A   Mostly Cloudy
6:30 PM 50.0 °F 39.2 °F 66% 30.04 in 6.2 mi East 4.6 mph - N/A   Mostly Cloudy
7:00 PM 49 °F 41 °F 64% 30.06 in 19 mi East 6.7 mph - -   Partly Cloudy
7:00 PM 48.2 °F 41.0 °F 76% 30.04 in 6.2 mi East 6.9 mph - N/A   Scattered Clouds
7:30 PM 51.8 °F 32.0 °F 47% 30.04 in 6.2 mi NNE 11.5 mph - N/A   Mostly Cloudy
8:00 PM 50.0 °F 32.0 °F 50% 30.04 in 6.2 mi NNE 10.4 mph - N/A   Mostly Cloudy
8:30 PM 50.0 °F 33.8 °F 54% 30.04 in 6.2 mi NNE 8.1 mph - N/A   Mostly Cloudy
9:00 PM 51.8 °F 33.8 °F 50% 30.06 in 6.2 mi NE 6.9 mph - N/A   Mostly Cloudy
9:30 PM 50.0 °F 32.0 °F 50% 30.06 in 6.2 mi NE 9.2 mph - N/A   Scattered Clouds
10:00 PM 50 °F 32 °F 38% 30.07 in 19 mi NE 8.9 mph - -  
10:00 PM 50.0 °F 33.8 °F 54% 30.06 in 6.2 mi NE 8.1 mph - N/A   Partly Cloudy
10:30 PM 50.0 °F 37.4 °F 62% 30.06 in - East 11.5 mph - N/A   Clear
11:00 PM 48.2 °F 39.2 °F 71% 30.06 in 6.2 mi ENE 9.2 mph - N/A   Scattered Clouds
11:30 PM 48.2 °F 39.2 °F 71% 30.06 in 6.2 mi East 10.4 mph - N/A   Mostly Cloudy